Vorticity
22 6 9 3 19 11 8 9 14 15 10 11 12 14 8 8 6 6 7 17 18 5 7 16 15 13 15
21 12 15 7 3 12 14 9 14 11 11 10 13 11 10 8 13 22 5 9 5 12 6 14 14 14 10
3 1 22 6 26 4 9 18 14 9 7 8 21 13 3 6 15 -3 3 5 14 3 10 5 16 13 11
24 -0 20 9 19 11 13 12 13 10 15 9 16 14 16 -6 11 -12 3 13 -1 11 4 9 13 12 13
15 18 14 11 18 15 16 14 5 7 9 17 21 24 9 -4 -3 5 13 9 7 5 3 11 12 16 16
13 17 1 19 12 13 9 6 12 14 13 22 21 14 5 20 18 8 12 22 7 5 10 15 15 13 13
27 12 20 17 14 11 7 9 13 17 16 18 18 7 17 16 5 10 12 4 12 6 14 13 12 8 7
17 9 7 14 9 8 13 10 13 10 14 12 14 4 7 5 24 9 -2 9 5 8 13 13 9 10 11
34 19 15 6 7 10 10 10 10 12 14 14 16 6 5 17 9 1 7 2 5 16 14 10 11 11 9
9 17 7 9 9 10 10 9 11 16 16 13 10 4 8 16 1 1 -0 4 10 10 14 9 11 10 9
24 4 10 11 11 12 12 14 14 17 14 12 3 8 8 8 13 5 7 6 8 16 10 9 10 9 9
13 13 12 12 11 12 15 16 19 17 14 11 14 13 10 18 4 15 2 8 12 14 9 9 10 9 11
13 11 10 9 12 15 15 14 15 16 17 15 11 18 22 25 5 9 8 11 13 11 9 9 9 9 11
8 9 11 12 13 13 15 13 14 15 14 19 22 14 8 6 3 6 11 11 14 9 8 8 8 10 11
10 10 10 11 11 12 14 16 14 18 8 18 4 5 8 7 5 9 10 14 10 8 7 8 9 11 13
8 12 13 13 11 16 22 21 15 7 9 14 11 11 9 8 10 12 15 10 8 8 9 10 11 14 14
13 14 13 11 14 19 20 11 18 17 16 13 9 10 11 12 16 13 10 8 8 9 10 12 15 17 16
Height
3056 3053 3051 3050 3051 3050 3048 3047 3045 3044 3044 3044 3045 3044 3044 3044 3043 3045 3045 3043 3043 3042 3039 3038 3037 3035 3035
3043 3041 3040 3038 3039 3038 3038 3036 3036 3034 3035 3036 3037 3038 3037 3038 3037 3038 3038 3038 3037 3037 3034 3032 3031 3029 3027
3030 3029 3029 3028 3029 3028 3026 3026 3026 3026 3026 3027 3029 3030 3032 3031 3031 3032 3032 3032 3033 3032 3031 3028 3025 3024 3022
3018 3017 3017 3017 3017 3018 3016 3016 3018 3017 3018 3019 3020 3024 3025 3024 3026 3025 3027 3027 3028 3028 3026 3024 3021 3019 3017
3005 3005 3005 3006 3005 3007 3007 3007 3009 3010 3011 3011 3011 3016 3017 3016 3020 3021 3021 3022 3024 3023 3022 3019 3016 3014 3012
2993 2994 2996 2998 2997 2997 2999 3000 3000 3003 3002 3002 3005 3008 3012 3012 3013 3015 3016 3017 3018 3018 3016 3014 3013 3011 3009
2982 2984 2984 2986 2989 2990 2992 2992 2993 2995 2995 2996 2998 3002 3005 3006 3008 3010 3012 3013 3013 3013 3012 3010 3009 3008 3007
2973 2976 2977 2978 2979 2983 2985 2985 2986 2987 2989 2991 2994 2997 2999 3002 3004 3006 3007 3008 3009 3008 3008 3007 3006 3005 3004
2965 2968 2970 2972 2973 2976 2977 2978 2980 2982 2983 2985 2988 2991 2994 2997 3000 3002 3003 3004 3004 3004 3004 3003 3003 3002 3001
2958 2961 2964 2966 2967 2969 2971 2972 2973 2974 2977 2981 2983 2987 2989 2992 2995 2998 2999 2999 3000 3001 3000 3000 3000 2999 2999
2955 2957 2959 2960 2962 2964 2964 2965 2966 2968 2972 2975 2978 2981 2984 2987 2991 2994 2995 2996 2997 2997 2997 2997 2997 2997 2997
2951 2953 2954 2956 2957 2958 2959 2959 2961 2963 2966 2969 2973 2976 2979 2982 2987 2990 2991 2992 2993 2993 2993 2994 2994 2995 2995
2948 2949 2951 2951 2952 2953 2954 2954 2956 2958 2961 2964 2968 2971 2974 2979 2983 2985 2987 2989 2989 2990 2990 2991 2991 2992 2992
2944 2946 2946 2947 2948 2949 2949 2951 2953 2954 2957 2960 2963 2967 2971 2975 2978 2981 2983 2985 2986 2986 2987 2988 2989 2989 2990
2941 2942 2943 2944 2944 2945 2945 2947 2949 2952 2955 2957 2961 2964 2968 2971 2975 2977 2979 2981 2982 2983 2984 2985 2986 2986 2987
2938 2940 2941 2941 2941 2941 2942 2944 2946 2949 2952 2955 2958 2962 2965 2969 2972 2974 2976 2977 2979 2980 2980 2981 2982 2983 2985
2936 2937 2938 2938 2938 2939 2940 2942 2944 2947 2950 2953 2956 2960 2963 2966 2969 2971 2973 2974 2976 2976 2977 2977 2978 2980 2981